Location: *
(30.4476°N, 114.3798°E)
Time: 02:52:42
(UTC+00:00)

Cosmos 1025 Rocket - Pass Details

Date: 09 April 2020
Orbit: 594 x 618 km, 82.5° (Epoch: 30 May)

Event Time Altitude Azimuth Distance (km) Brightness Sun altitude
Rises 21:34:38 0° 180° (S) 2,875 6.3 -6.4°
Reaches altitude 10° 21:36:51 10° 178° (S) 1,973 5.5 -5.9°
Maximum altitude 21:41:12 72° 95° (E) 650 3.4 -5.0°
Drops below altitude 10° 21:45:34 10° 11° (N) 1,978 6.0 -4.1°
Sets 21:47:48 0° 9° (N) 2,883 6.8 -3.6°
